TimeEDT,TemperatureF,Dew PointF,Humidity,Sea Level PressureIn,VisibilityMPH,Wind Direction,Wind SpeedMPH,Gust SpeedMPH,PrecipitationIn,Events,Conditions,WindDirDegrees,DateUTC
12:15 AM,74.3,64.8,72,30.16,10.0,Calm,Calm,-,N/A,Rain,Rain,0,2013-07-03 04:15:00
12:35 AM,73.4,65.3,76,30.16,10.0,Calm,Calm,-,N/A,Rain,Light Rain,0,2013-07-03 04:35:00
12:55 AM,72.7,65.5,78,30.15,10.0,Calm,Calm,-,N/A,,Overcast,0,2013-07-03 04:55:00
1:15 AM,72.1,66.4,82,30.15,10.0,Calm,Calm,-,N/A,Rain,Light Rain,0,2013-07-03 05:15:00
1:35 AM,71.1,67.3,88,30.16,10.0,Calm,Calm,-,N/A,,Overcast,0,2013-07-03 05:35:00
1:55 AM,70.7,67.6,90,30.15,10.0,Calm,Calm,-,N/A,,Mostly Cloudy,0,2013-07-03 05:55:00
2:15 AM,70.2,67.5,91,30.15,10.0,Calm,Calm,-,N/A,,Scattered Clouds,0,2013-07-03 06:15:00
2:35 AM,70.0,67.8,93,30.14,10.0,Calm,Calm,-,N/A,,Clear,0,2013-07-03 06:35:00
2:55 AM,69.4,67.3,93,30.14,10.0,Calm,Calm,-,N/A,,Clear,0,2013-07-03 06:55:00
3:15 AM,69.1,67.1,93,30.14,10.0,Calm,Calm,-,N/A,,Scattered Clouds,0,2013-07-03 07:15:00
3:35 AM,68.7,66.7,93,30.15,10.0,Calm,Calm,-,N/A,,Scattered Clouds,0,2013-07-03 07:35:00
3:55 AM,69.8,67.3,92,30.15,10.0,Calm,Calm,-,N/A,,Scattered Clouds,0,2013-07-03 07:55:00
4:15 AM,69.6,66.4,89,30.16,10.0,Calm,Calm,-,N/A,,Scattered Clouds,0,2013-07-03 08:15:00
4:35 AM,70.5,66.7,88,30.16,10.0,Calm,Calm,-,N/A,,Scattered Clouds,0,2013-07-03 08:35:00
4:55 AM,70.2,66.2,87,30.16,10.0,Calm,Calm,-,N/A,,Scattered Clouds,0,2013-07-03 08:55:00
5:15 AM,70.9,65.5,83,30.17,10.0,Calm,Calm,-,N/A,,Clear,0,2013-07-03 09:15:00
5:35 AM,69.8,65.5,86,30.17,10.0,Calm,Calm,-,N/A,,Mostly Cloudy,0,2013-07-03 09:35:00
5:55 AM,69.1,65.8,89,30.18,10.0,Calm,Calm,-,N/A,Rain,Light Rain,0,2013-07-03 09:55:00
6:15 AM,68.5,66.2,92,30.19,10.0,Calm,Calm,-,N/A,,Scattered Clouds,0,2013-07-03 10:15:00
6:35 AM,68.9,66.7,93,30.19,10.0,Calm,Calm,-,N/A,,Clear,0,2013-07-03 10:35:00
6:55 AM,69.6,67.5,93,30.20,10.0,Calm,Calm,-,N/A,,Clear,0,2013-07-03 10:55:00
7:15 AM,70.7,68.4,92,30.20,10.0,Calm,Calm,-,N/A,,Clear,0,2013-07-03 11:15:00
7:35 AM,70.5,67.8,91,30.20,10.0,Calm,Calm,-,N/A,Rain,Light Rain,0,2013-07-03 11:35:00
7:55 AM,70.5,68.0,92,30.21,5.0,Calm,Calm,-,0.01,Rain,Light Rain,0,2013-07-03 11:55:00
8:15 AM,71.1,69.1,93,30.22,10.0,Calm,Calm,-,N/A,Rain,Light Rain,0,2013-07-03 12:15:00
8:35 AM,72.0,69.8,93,30.22,10.0,Calm,Calm,-,N/A,,Scattered Clouds,0,2013-07-03 12:35:00
8:55 AM,72.7,69.8,91,30.22,10.0,Calm,Calm,-,N/A,,Clear,0,2013-07-03 12:55:00
9:15 AM,73.6,70.0,88,30.23,10.0,Calm,Calm,-,N/A,,Clear,0,2013-07-03 13:15:00
9:35 AM,74.7,70.3,86,30.23,10.0,Calm,Calm,-,N/A,,Clear,0,2013-07-03 13:35:00
9:55 AM,77.0,70.7,81,30.23,10.0,Calm,Calm,-,N/A,,Clear,0,2013-07-03 13:55:00
10:15 AM,76.8,69.8,79,30.23,10.0,Calm,Calm,-,N/A,,Clear,0,2013-07-03 14:15:00
10:35 AM,77.5,70.3,78,30.23,10.0,Calm,Calm,-,N/A,,Clear,0,2013-07-03 14:35:00
10:55 AM,78.3,70.7,77,30.23,10.0,Calm,Calm,-,N/A,,Clear,0,2013-07-03 14:55:00
11:15 AM,78.6,70.5,76,30.23,10.0,Calm,Calm,-,N/A,,Scattered Clouds,0,2013-07-03 15:15:00
11:35 AM,79.5,69.8,72,30.23,10.0,Calm,Calm,-,N/A,,Scattered Clouds,0,2013-07-03 15:35:00
11:55 AM,81.0,69.8,69,30.22,10.0,Calm,Calm,-,N/A,,Scattered Clouds,0,2013-07-03 15:55:00
12:15 PM,81.9,69.3,65,30.22,10.0,Calm,Calm,-,N/A,,Scattered Clouds,0,2013-07-03 16:15:00
12:35 PM,82.4,68.7,63,30.21,10.0,Calm,Calm,-,N/A,,Scattered Clouds,0,2013-07-03 16:35:00
12:55 PM,82.8,69.8,65,30.21,10.0,Calm,Calm,-,N/A,,Clear,0,2013-07-03 16:55:00
1:15 PM,84.7,70.2,61,30.21,10.0,Calm,Calm,-,N/A,,Clear,0,2013-07-03 17:15:00
1:35 PM,85.8,70.0,59,30.20,10.0,South,4.6,-,N/A,,Clear,190,2013-07-03 17:35:00
1:55 PM,86.7,70.2,58,30.19,10.0,Calm,Calm,-,N/A,,Scattered Clouds,0,2013-07-03 17:55:00
2:15 PM,86.9,70.9,59,30.19,10.0,Calm,Calm,-,N/A,,Mostly Cloudy,0,2013-07-03 18:15:00
2:35 PM,87.8,69.8,55,30.18,10.0,Calm,Calm,-,N/A,,Mostly Cloudy,0,2013-07-03 18:35:00
2:55 PM,86.2,66.9,52,30.19,10.0,Calm,Calm,-,N/A,,Scattered Clouds,0,2013-07-03 18:55:00
3:15 PM,84.4,68.5,59,30.19,10.0,Calm,Calm,-,N/A,,Clear,0,2013-07-03 19:15:00
3:35 PM,83.3,68.4,61,30.19,10.0,Calm,Calm,-,N/A,,Clear,0,2013-07-03 19:35:00
3:55 PM,83.8,69.4,62,30.19,10.0,Calm,Calm,-,N/A,,Clear,0,2013-07-03 19:55:00
4:15 PM,83.7,69.1,61,30.19,10.0,Calm,Calm,-,N/A,,Clear,0,2013-07-03 20:15:00
4:35 PM,83.1,69.1,62,30.20,10.0,Calm,Calm,-,N/A,,Clear,0,2013-07-03 20:35:00
4:55 PM,81.9,66.7,60,30.21,10.0,SSW,3.5,-,N/A,,Clear,200,2013-07-03 20:55:00
5:15 PM,81.5,66.7,61,30.21,10.0,Calm,Calm,-,N/A,,Scattered Clouds,0,2013-07-03 21:15:00
5:35 PM,79.9,68.4,68,30.21,10.0,Calm,Calm,-,N/A,Rain,Light Rain,0,2013-07-03 21:35:00
5:55 PM,80.2,69.6,70,30.20,10.0,Calm,Calm,-,N/A,Rain,Light Rain,0,2013-07-03 21:55:00
6:15 PM,79.7,69.3,70,30.20,10.0,Calm,Calm,-,N/A,,Scattered Clouds,0,2013-07-03 22:15:00
6:35 PM,79.3,68.9,70,30.20,10.0,Calm,Calm,-,N/A,,Scattered Clouds,0,2013-07-03 22:35:00
6:55 PM,78.8,68.4,70,30.20,10.0,Calm,Calm,-,N/A,Rain,Light Rain,0,2013-07-03 22:55:00
7:15 PM,78.3,68.5,72,30.20,10.0,Calm,Calm,-,N/A,Rain,Light Rain,0,2013-07-03 23:15:00
7:35 PM,77.2,69.4,77,30.21,10.0,Calm,Calm,-,N/A,,Light Drizzle,0,2013-07-03 23:35:00
7:55 PM,77.0,69.4,77,30.21,10.0,Calm,Calm,-,N/A,,Scattered Clouds,0,2013-07-03 23:55:00
8:15 PM,76.3,69.4,79,30.20,10.0,Calm,Calm,-,N/A,,Clear,0,2013-07-04 00:15:00
8:35 PM,75.7,69.4,81,30.21,10.0,Calm,Calm,-,N/A,,Clear,0,2013-07-04 00:35:00
8:55 PM,75.6,69.8,82,30.21,10.0,Calm,Calm,-,N/A,,Clear,0,2013-07-04 00:55:00
9:15 PM,75.7,69.3,80,30.22,10.0,Calm,Calm,-,N/A,,Clear,0,2013-07-04 01:15:00
9:35 PM,75.6,69.1,80,30.22,10.0,Calm,Calm,-,N/A,Rain,Rain,0,2013-07-04 01:35:00
9:55 PM,74.7,68.9,82,30.23,10.0,Calm,Calm,-,N/A,Rain,Light Rain,0,2013-07-04 01:55:00
10:15 PM,74.5,68.9,83,30.23,10.0,Calm,Calm,-,N/A,,Light Drizzle,0,2013-07-04 02:15:00
10:35 PM,74.1,68.9,84,30.24,10.0,Calm,Calm,-,N/A,,Clear,0,2013-07-04 02:35:00
10:55 PM,73.2,68.5,85,30.24,10.0,Calm,Calm,-,N/A,,Clear,0,2013-07-04 02:55:00
11:15 PM,73.0,68.4,85,30.24,10.0,Calm,Calm,-,N/A,,Clear,0,2013-07-04 03:15:00
11:35 PM,73.0,68.0,84,30.24,10.0,Calm,Calm,-,N/A,,Scattered Clouds,0,2013-07-04 03:35:00
11:55 PM,72.7,68.2,86,30.24,10.0,Calm,Calm,-,N/A,,Clear,0,2013-07-04 03:55:00